TimeMST,TemperatureF,Dew PointF,Humidity,Sea Level PressureIn,VisibilityMPH,Wind Direction,Wind SpeedMPH,Gust SpeedMPH,PrecipitationIn,Events,Conditions,WindDirDegrees,DateUTC
12:15 AM,51.8,30.2,44,30.17,10.0,SSW,5.8,-,N/A,,Clear,200,2013-05-19 07:15:00
12:35 AM,51.8,30.2,44,30.16,10.0,SW,8.1,-,N/A,,Clear,220,2013-05-19 07:35:00
12:55 AM,51.8,30.2,44,30.16,10.0,SW,6.9,-,N/A,,Clear,220,2013-05-19 07:55:00
1:35 AM,50.0,28.4,43,30.16,10.0,SW,5.8,-,N/A,,Partly Cloudy,220,2013-05-19 08:35:00
1:55 AM,50.0,28.4,43,30.16,10.0,SW,6.9,-,N/A,,Partly Cloudy,220,2013-05-19 08:55:00
2:15 AM,50.0,28.4,43,30.15,10.0,SW,6.9,-,N/A,,Clear,220,2013-05-19 09:15:00
2:35 AM,50.0,28.4,43,30.15,10.0,SW,8.1,-,N/A,,Clear,220,2013-05-19 09:35:00
2:55 AM,50.0,28.4,43,30.15,10.0,SW,5.8,-,N/A,,Clear,230,2013-05-19 09:55:00
3:15 AM,50.0,28.4,43,30.15,10.0,SSW,6.9,-,N/A,,Clear,210,2013-05-19 10:15:00
3:35 AM,50.0,28.4,43,30.15,10.0,SW,8.1,-,N/A,,Clear,220,2013-05-19 10:35:00
3:55 AM,50.0,28.4,43,30.15,10.0,SW,6.9,-,N/A,,Clear,220,2013-05-19 10:55:00
4:15 AM,50.0,28.4,43,30.15,10.0,SW,5.8,-,N/A,,Clear,220,2013-05-19 11:15:00
4:35 AM,48.2,26.6,43,30.15,10.0,SW,4.6,-,N/A,,Clear,230,2013-05-19 11:35:00
4:55 AM,46.4,26.6,46,30.15,10.0,SW,5.8,-,N/A,,Clear,230,2013-05-19 11:55:00
5:15 AM,48.2,26.6,43,30.15,10.0,SSW,5.8,-,N/A,,Clear,210,2013-05-19 12:15:00
5:35 AM,42.8,26.6,53,30.15,10.0,Calm,Calm,-,N/A,,Clear,0,2013-05-19 12:35:00
5:55 AM,42.8,26.6,53,30.16,10.0,Calm,Calm,-,N/A,,Clear,0,2013-05-19 12:55:00
6:15 AM,44.6,28.4,53,30.16,10.0,Calm,Calm,-,N/A,,Clear,0,2013-05-19 13:15:00
6:35 AM,50.0,28.4,43,30.17,10.0,WSW,4.6,-,N/A,,Clear,250,2013-05-19 13:35:00
6:55 AM,55.4,28.4,36,30.17,10.0,WSW,8.1,-,N/A,,Clear,240,2013-05-19 13:55:00
7:15 AM,57.2,28.4,33,30.16,10.0,SW,8.1,-,N/A,,Clear,230,2013-05-19 14:15:00
7:35 AM,57.2,28.4,33,30.17,10.0,West,9.2,-,N/A,,Clear,260,2013-05-19 14:35:00
7:55 AM,59.0,26.6,29,30.17,10.0,WSW,9.2,18.4,N/A,,Clear,250,2013-05-19 14:55:00
8:15 AM,59.0,26.6,29,30.17,10.0,West,12.7,20.7,N/A,,Clear,270,2013-05-19 15:15:00
8:35 AM,60.8,26.6,27,30.17,10.0,WSW,10.4,-,N/A,,Clear,250,2013-05-19 15:35:00
8:55 AM,60.8,26.6,27,30.17,10.0,West,10.4,18.4,N/A,,Clear,270,2013-05-19 15:55:00
9:15 AM,62.6,24.8,24,30.17,10.0,WSW,13.8,-,N/A,,Clear,240,2013-05-19 16:15:00
9:35 AM,64.4,23.0,21,30.17,10.0,WSW,10.4,-,N/A,,Clear,250,2013-05-19 16:35:00
9:55 AM,64.4,17.6,16,30.17,10.0,West,11.5,19.6,N/A,,Clear,280,2013-05-19 16:55:00
10:15 AM,64.4,17.6,16,30.16,10.0,West,13.8,20.7,N/A,,Clear,260,2013-05-19 17:15:00
10:35 AM,66.2,19.4,17,30.15,10.0,West,11.5,26.5,N/A,,Clear,270,2013-05-19 17:35:00
10:55 AM,66.2,15.8,14,30.15,10.0,West,19.6,24.2,N/A,,Clear,280,2013-05-19 17:55:00
11:15 AM,66.2,15.8,14,30.15,10.0,West,16.1,25.3,N/A,,Clear,280,2013-05-19 18:15:00
11:35 AM,66.2,15.8,14,30.14,10.0,WSW,12.7,27.6,N/A,,Clear,250,2013-05-19 18:35:00
11:55 AM,68.0,17.6,15,30.14,10.0,SW,15.0,24.2,N/A,,Clear,220,2013-05-19 18:55:00
12:15 PM,69.8,17.6,14,30.13,10.0,West,20.7,27.6,N/A,,Clear,280,2013-05-19 19:15:00
12:35 PM,69.8,17.6,14,30.12,10.0,West,13.8,25.3,N/A,,Clear,270,2013-05-19 19:35:00
12:55 PM,69.8,17.6,14,30.12,10.0,WSW,19.6,27.6,N/A,,Clear,250,2013-05-19 19:55:00
1:15 PM,69.8,17.6,14,30.11,10.0,West,11.5,31.1,N/A,,Clear,270,2013-05-19 20:15:00
1:35 PM,69.8,15.8,13,30.11,10.0,West,20.7,31.1,N/A,,Clear,260,2013-05-19 20:35:00
1:55 PM,69.8,17.6,14,30.11,10.0,West,24.2,29.9,N/A,,Clear,270,2013-05-19 20:55:00
2:15 PM,69.8,17.6,14,30.11,10.0,West,19.6,31.1,N/A,,Clear,270,2013-05-19 21:15:00
2:35 PM,69.8,17.6,14,30.10,10.0,West,21.9,27.6,N/A,,Clear,270,2013-05-19 21:35:00
2:55 PM,69.8,17.6,14,30.10,10.0,West,16.1,34.5,N/A,,Clear,280,2013-05-19 21:55:00
3:15 PM,68.0,15.8,13,30.09,10.0,West,21.9,33.4,N/A,,Clear,270,2013-05-19 22:15:00
3:35 PM,69.8,17.6,14,30.08,10.0,West,19.6,33.4,N/A,,Clear,260,2013-05-19 22:35:00
3:55 PM,68.0,17.6,15,30.08,10.0,West,23.0,33.4,N/A,,Clear,280,2013-05-19 22:55:00
4:15 PM,68.0,17.6,15,30.08,10.0,West,20.7,25.3,N/A,,Clear,270,2013-05-19 23:15:00
4:35 PM,68.0,17.6,15,30.08,10.0,West,21.9,31.1,N/A,,Clear,270,2013-05-19 23:35:00
4:55 PM,68.0,15.8,13,30.08,10.0,West,18.4,29.9,N/A,,Clear,270,2013-05-19 23:55:00
5:15 PM,66.2,15.8,14,30.09,10.0,West,15.0,29.9,N/A,,Clear,280,2013-05-20 00:15:00
5:35 PM,66.2,17.6,15,30.09,10.0,West,23.0,31.1,N/A,,Clear,280,2013-05-20 00:35:00
5:55 PM,66.2,17.6,15,30.09,10.0,West,21.9,28.8,N/A,,Clear,280,2013-05-20 00:55:00
6:15 PM,64.4,19.4,18,30.10,10.0,West,17.3,29.9,N/A,,Clear,280,2013-05-20 01:15:00
6:35 PM,62.6,15.8,16,30.11,10.0,West,16.1,26.5,N/A,,Clear,270,2013-05-20 01:35:00
6:55 PM,62.6,17.6,18,30.11,10.0,West,17.3,-,N/A,,Clear,270,2013-05-20 01:55:00
7:35 PM,59.0,17.6,20,30.12,10.0,WNW,15.0,-,N/A,,Clear,290,2013-05-20 02:35:00
7:55 PM,57.2,17.6,21,30.13,10.0,WNW,11.5,-,N/A,,Clear,300,2013-05-20 02:55:00
8:15 PM,55.4,17.6,23,30.14,10.0,NW,8.1,-,N/A,,Clear,310,2013-05-20 03:15:00
8:35 PM,55.4,15.8,21,30.15,10.0,NW,10.4,-,N/A,,Clear,310,2013-05-20 03:35:00
8:55 PM,53.6,15.8,22,30.16,10.0,NW,6.9,-,N/A,,Clear,310,2013-05-20 03:55:00
9:15 PM,51.8,15.8,24,30.17,10.0,WNW,8.1,-,N/A,,Clear,300,2013-05-20 04:15:00
9:35 PM,50.0,15.8,26,30.18,10.0,NW,8.1,-,N/A,,Clear,310,2013-05-20 04:35:00
9:55 PM,48.2,17.6,30,30.19,10.0,NW,6.9,-,N/A,,Clear,320,2013-05-20 04:55:00
10:15 PM,48.2,19.4,32,30.20,10.0,NNW,6.9,-,N/A,,Clear,330,2013-05-20 05:15:00
10:35 PM,48.2,21.2,34,30.20,10.0,NNW,6.9,-,N/A,,Clear,330,2013-05-20 05:35:00
10:55 PM,46.4,23.0,40,30.19,10.0,NNW,8.1,-,N/A,,Clear,330,2013-05-20 05:55:00
11:15 PM,48.2,24.8,40,30.19,10.0,NNW,10.4,-,N/A,,Clear,330,2013-05-20 06:15:00
11:35 PM,44.6,24.8,46,30.19,10.0,NW,6.9,-,N/A,,Clear,320,2013-05-20 06:35:00
11:55 PM,42.8,24.8,49,30.20,10.0,SSE,4.6,-,N/A,,Clear,150,2013-05-20 06:55:00